Погода в Гузаре

Узбекистан     38°37′36″N   66°15′09″E
темп.,
°C
ветер,
м/с
пор.,
м/с
влажн.,
%
обл.,
%
осадки,
мм/ч
давл.,
гПа
погр.,
м
27 февраля, сб
сб2723:00−3св22320 0.0 103031
02:00−2св113163 0.0 102939
05:00−2ссв113081 0.0 102950
08:00−1юв1127100 0.0 102972
11:00+3юз122582 0.0 1030724
14:00+6зюз34250 0.0 10281158
17:00+7зюз33280 0.0 10271014
20:00+3з11430 0.0 102822
28 февраля, вс
вс2823:00+1св11460 0.0 102722
02:00+1всв23490 0.0 102531
05:00+1св34490 0.0 102357
08:00+2св35460 0.0 102289
11:00+10св45270 0.0 1021441
14:00+14с22190 0.0 1018915
17:00+14с22190 0.0 1017953
20:00+8с23350 0.0 101823
1 марта, пн
пн123:00+6всв11420 0.0 101822
02:00+6вюв223866 0.0 101822
05:00+6вюв233283 0.0 101822
08:00+8юв342437 0.0 101845
11:00+19ю791318 0.0 10181849
14:00+21юз69120 0.0 10172286
17:00+19юз67160 0.0 10161128
20:00+14ююз342533 0.0 101837
2 марта, вт
вт223:00+13вюв232552 0.0 101923
02:00+11св2231100 0.0 101925
05:00+11св3330100 0.0 101839
08:00+11ссв2331100 0.0 102029
11:00+16з1220100 0.0 1020343
14:00+19сз3317100 0.0 10191053
17:00+17ссз4422100 0.0 1019854
20:00+13с4833100 0.0 1020203
3 марта, ср
ср323:00+11с115198 0.0 102025
02:00+11вюв2350100 0.0 102026
05:00+9зсз1254100 0.0 101922
08:00+10с1159100 0.0 102023
11:00+13зсз343998 0.0 1019454
14:00+16зюз3438100 0.0 10181234
17:00+16зюз343891 0.0 10161807
20:00+12ссв235240 0.0 101623